Погода Зеббугна 2 недели

Аура, Мальта

16 - 29 июля
  • 16июля
    Сегодня
    +26°
    +30°
    Ясно и безоблачно
    ВремяПогодаТемператураВлажностьДавлениеВетер, м/сВероятность осадков
    02:00Ясно и безоблачно+27°C88 %753 мм2.5 м/с1 %
    05:00Ясно и безоблачно+27°C94 %753 мм2.9 м/с1 %
    08:00Ясно и безоблачно+28°C93 %753 мм3.0 м/с1 %
    11:00Ясно и безоблачно+29°C91 %754 мм3.6 м/с1 %
    14:00Ясно и безоблачно+30°C76 %754 мм3.1 м/с1 %
    17:00Ясно и безоблачно+29°C84 %753 мм3.3 м/с1 %
    20:00Ясно и безоблачно+28°C84 %753 мм5.1 м/с1 %
    23:00Ясно и безоблачно+28°C82 %754 мм5.1 м/с1 %
  • 17июля
    Среда
    +27°
    +30°
    Ясно и безоблачно
    ВремяПогодаТемператураВлажностьДавлениеВетер, м/сВероятность осадков
    02:00Ясно и безоблачно+27°C85 %753 мм4.4 м/с2 %
    05:00Ясно и безоблачно+26°C91 %752 мм2.5 м/с2 %
    08:00Ясно и безоблачно+28°C92 %754 мм2.6 м/с2 %
    11:00Ясно и безоблачно+28°C87 %755 мм1.9 м/с2 %
    14:00Ясно и безоблачно+29°C81 %754 мм1.5 м/с2 %
    17:00Ясно и безоблачно+30°C79 %754 мм2.6 м/с2 %
    20:00Ясно и безоблачно+29°C77 %754 мм1.5 м/с2 %
    23:00Ясно и безоблачно+28°C80 %754 мм1.6 м/с2 %
  • 18июля
    Четверг
    +27°
    +31°
    Ясно и безоблачно
    ВремяПогодаТемператураВлажностьДавлениеВетер, м/сВероятность осадков
    02:00Ясно и безоблачно+27°C84 %754 мм1.3 м/с2 %
    05:00Ясно и безоблачно+27°C87 %754 мм1.4 м/с2 %
    08:00Ясно и безоблачно+28°C94 %755 мм1.9 м/с2 %
    11:00Ясно и безоблачно+28°C87 %756 мм0.1 м/с2 %
    14:00Ясно и безоблачно+29°C83 %755 мм2.1 м/с2 %
    17:00Ясно и безоблачно+31°C75 %755 мм4.1 м/с2 %
    20:00Ясно и безоблачно+29°C77 %755 мм4.2 м/с2 %
    23:00Ясно и безоблачно+29°C78 %755 мм2.3 м/с2 %
  • 19июля
    Пятница
    +26°
    +31°
    Ясно и безоблачно
    ВремяПогодаТемператураВлажностьДавлениеВетер, м/сВероятность осадков
    02:00Ясно и безоблачно+27°C83 %754 мм3.4 м/с2 %
    05:00Ясно и безоблачно+27°C91 %754 мм2.7 м/с2 %
    08:00Ясно и безоблачно+28°C92 %754 мм1.3 м/с2 %
    11:00Ясно и безоблачно+28°C90 %755 мм1.3 м/с2 %
    14:00Ясно и безоблачно+29°C82 %754 мм1.0 м/с2 %
    17:00Ясно и безоблачно+31°C71 %754 мм3.5 м/с2 %
    20:00Ясно и безоблачно+29°C77 %753 мм2.2 м/с2 %
    23:00Ясно и безоблачно+28°C86 %753 мм1.8 м/с2 %
  • 20июля
    Суббота
    +26°
    +31°
    Ясно и безоблачно
    ВремяПогодаТемператураВлажностьДавлениеВетер, м/сВероятность осадков
    02:00Ясно и безоблачно+27°C88 %752 мм2.3 м/с2 %
    05:00Ясно и безоблачно+27°C89 %752 мм2.3 м/с2 %
    08:00Ясно и безоблачно+28°C90 %752 мм1.2 м/с2 %
    11:00Ясно и безоблачно+29°C89 %753 мм0.8 м/с2 %
    14:00Ясно и безоблачно+30°C80 %752 мм2.8 м/с2 %
    17:00Ясно и безоблачно+31°C73 %751 мм4.8 м/с2 %
    20:00Ясно и безоблачно+29°C77 %751 мм5.2 м/с2 %
    23:00Ясно и безоблачно+28°C81 %751 мм4.8 м/с2 %
Мы используем cookies
Соглашаюсь